STARLINK-33786 (63514 NORAD) Tracking and Keplerian Element Data

This shows tracking and keplerian element data for the satellite.

Feedback or suggestion? Click here.




ElementValue
Catalog63514
NameSTARLINK-33786
Epoch Orbit4016
Epoch Day353.86101708
Epoch Year2025
RAAN150.9728
Inclination53.1575
Eccentricity0.0001125
Argument of Perigee86.4639
Mean Anonmoly273.649
Mean Motion15.30213679
Decay Rate0.00030606
L11 63514U 25071X 25353.86101708 .00030606 00000+0 10408-2 0 9992
L22 63514 53.1575 150.9728 0001125 86.4639 273.6490 15.30213679 40163



Live tracking and technical data element details for STARLINK-33786 (NORAD 63514). STARLINK-33786 can be tracked NOW for your location showing map with azimuth and elevation plus other details from your city location.







IsCatalogInMostPopularTable: catalog: 63514, numindb: 2
Update: records affected: 1



GetName: 63514 STARLINK-33786

Hit Count: updated at: Mon, 09 Feb 2026 09:02:45 GMT